RH
100 100 100 100 100 100 100 100 100 100 100 100 100 100 100 100 100 100 100 100 99 92 87 76 58 51 48 39 40 34 32 29 23 19 19 25 28 33 40 43 44 49 51
93 100 100 100 100 100 100 100 100 100 100 100 100 100 100 99 100 98 97 91 78 71 57 41 49 41 42 63 47 49 36 30 22 18 25 30 33 40 45 47 50 52 60
48 58 76 94 100 100 100 100 100 98 93 93 98 100 100 96 90 94 80 63 62 49 48 41 50 49 62 77 58 58 43 28 28 30 32 35 42 47 52 54 57 63 67
44 45 46 42 39 40 50 60 67 68 79 89 94 89 89 90 78 65 52 48 43 56 55 56 51 68 92 82 72 53 39 33 44 42 38 43 51 57 56 58 66 68 63
56 41 36 29 27 28 29 30 31 34 39 35 44 41 40 38 38 38 32 51 64 58 82 100 77 81 71 83 78 44 39 42 49 51 50 50 52 55 60 68 67 67 73
28 38 47 55 44 40 32 27 29 33 36 35 40 26 33 28 56 56 83 69 76 100 99 100 77 84 74 88 66 44 41 52 53 52 51 52 53 56 61 63 68 60 64
18 19 22 25 27 28 28 27 28 24 22 21 27 32 42 60 64 79 97 93 99 95 100 78 96 69 76 77 65 45 52 59 55 48 48 51 54 57 58 58 61 63 62
17 16 16 16 16 18 17 17 18 18 18 20 28 41 47 63 70 75 99 87 98 94 77 97 89 94 81 79 66 58 57 64 59 51 51 54 58 60 62 65 68 69 68
21 20 18 17 17 16 16 17 18 18 19 20 23 28 38 46 64 45 71 100 100 94 100 98 100 82 89 77 69 64 69 69 66 60 61 62 66 67 68 72 74 71 71
21 21 21 20 20 20 22 22 22 22 22 24 25 26 30 38 47 75 94 93 94 100 100 100 93 90 76 82 68 70 76 80 78 74 74 70 70 70 71 73 74 75 76
19 19 20 21 23 23 23 24 24 26 27 27 29 32 43 51 52 96 94 100 98 100 100 90 97 87 83 72 76 79 82 84 94 94 89 84 80 79 80 80 76 76 77
20 20 20 20 20 20 22 23 25 30 31 31 36 44 66 81 97 100 100 98 100 98 100 99 100 100 85 74 75 85 83 87 86 88 90 89 87 80 73 72 71 69 66
24 22 23 23 23 23 25 26 28 31 32 40 51 72 94 83 100 100 96 100 100 100 100 100 100 91 90 74 78 82 84 82 85 82 80 74 70 68 65 67 69 65 63
33 32 29 29 29 29 32 35 40 44 47 77 81 84 86 95 100 100 100 100 100 100 94 100 99 100 87 81 84 84 84 82 78 78 77 74 68 65 66 69 69 64 63
49 44 51 50 47 48 63 71 74 81 82 86 92 95 100 100 100 100 100 100 100 100 100 100 99 94 76 79 82 78 90 91 80 73 74 78 75 68 65 66 63 64 66
87 85 83 80 80 81 84 90 92 92 88 88 100 100 100 100 100 100 100 100 100 100 100 94 86 83 83 88 85 87 93 85 78 76 82 83 73 67 60 60 66 68 63
96 92 90 92 93 92 91 94 99 100 100 100 100 100 100 100 100 100 100 100 100 91 95 89 89 89 85 81 84 90 89 86 78 86 91 86 74 65 63 68 69 60 38
98 98 96 95 93 96 96 96 99 100 100 100 100 99 99 99 100 100 100 99 94 91 91 84 84 85 80 83 91 86 84 82 90 92 84 78 76 70 72 74 62 36 31
95 99 99 99 96 97 100 99 96 88 84 86 88 93 93 89 87 90 94 95 90 83 85 87 84 85 89 90 87 86 89 93 94 85 81 80 78 74 76 62 35 31 22
91 93 96 99 100 99 98 99 99 99 100 98 98 99 99 100 100 97 95 94 92 88 86 85 87 86 83 88 94 94 99 94 89 83 82 78 76 78 59 39 33 24 22
99 99 97 97 98 100 99 98 100 99 98 96 96 94 91 93 94 94 93 91 89 92 95 92 88 94 95 92 97 98 96 92 89 86 78 76 71 51 39 33 23 22 21
99 99 100 100 100 99 100 99 100 100 99 99 100 97 97 100 98 97 96 97 100 100 100 100 98 99 100 100 97 88 83 86 83 80 76 64 43 36 31 22 22 21 21
99 100 100 98 94 95 97 96 93 89 87 85 84 85 86 91 93 96 99 98 98 100 100 97 100 100 100 100 93 87 86 86 85 76 54 39 34 26 22 22 20 20 22
99 100 100 100 96 95 96 97 95 92 88 85 82 83 84 90 92 95 100 100 100 100 100 100 100 100 100 99 92 90 89 80 59 43 39 32 23 22 22 19 19 20 24
92 92 94 92 90 92 98 96 88 83 81 75 67 58 54 52 53 63 78 93 100 100 100 100 100 100 100 95 97 90 64 46 43 38 29 24 23 21 19 19 19 23 21
84 84 86 89 94 94 85 78 72 72 70 63 52 49 45 43 43 51 51 53 64 79 90 94 99 94 93 95 72 52 44 44 36 27 24 22 20 19 18 19 21 20 17
Wind_Speed
114 113 111 111 111 109 108 106 105 105 105 103 102 103 105 106 105 106 107 109 108 109 105 105 102 99 96 93 90 92 92 91 87 86 79 72 66 63 59 57 55 54 54
115 115 114 112 112 110 110 109 108 107 107 106 106 106 107 109 109 110 109 107 105 104 103 93 87 92 90 86 86 87 88 85 85 78 71 67 63 60 57 55 54 54 53
110 113 114 115 114 112 110 110 108 108 108 107 108 108 109 110 109 107 105 103 101 96 88 91 88 84 77 82 84 83 82 80 74 71 65 62 59 57 56 55 54 54 54
108 109 109 109 108 109 109 109 109 108 109 108 108 107 106 105 103 101 100 98 92 85 89 82 82 80 74 80 81 80 77 70 64 64 61 58 57 57 56 55 54 56 56
113 108 106 105 105 106 106 105 104 104 105 103 101 99 97 97 94 93 87 80 85 84 81 86 85 74 76 76 76 76 72 62 58 57 56 55 54 55 55 55 55 55 54
101 105 108 110 108 106 105 102 101 101 100 99 99 93 90 86 82 83 85 83 80 82 86 79 76 74 71 72 78 72 65 56 55 52 52 50 49 51 51 52 51 50 49
89 93 96 99 100 101 99 97 95 93 90 89 86 86 84 83 81 80 81 82 85 75 75 77 70 70 68 72 71 66 57 53 52 53 51 50 49 48 48 48 48 49 50
80 81 83 84 87 88 87 85 84 84 84 81 82 81 82 82 82 80 81 72 69 70 66 67 71 68 70 69 67 62 55 53 51 49 48 47 46 46 46 48 51 54 57
74 75 76 77 78 78 77 77 76 76 75 75 75 74 74 75 74 71 61 60 65 64 62 64 68 70 66 65 62 57 52 52 51 50 49 49 49 50 51 54 57 59 60
64 66 67 68 69 68 68 69 69 69 67 66 66 67 65 65 63 58 61 60 63 61 60 65 68 64 66 63 61 56 52 52 53 54 54 54 55 56 58 58 58 60 63
60 60 60 61 61 63 63 63 63 62 62 61 60 59 59 59 58 58 60 62 56 57 62 64 63 67 65 63 60 57 54 54 55 57 59 59 60 60 60 63 65 66 69
54 55 57 59 60 61 61 61 60 60 59 58 57 55 54 57 57 59 56 52 56 60 62 61 65 66 67 64 61 59 59 57 58 61 62 64 66 67 68 69 70 72 73
49 50 50 51 53 54 55 56 55 56 57 56 55 54 53 57 54 57 53 54 60 60 61 63 64 68 67 66 65 61 62 61 60 62 65 67 69 70 71 72 73 74 75
42 43 45 46 48 48 48 48 49 50 50 51 50 51 53 53 49 50 52 59 58 62 65 64 67 68 69 68 68 64 64 65 66 66 67 68 69 70 71 72 73 76 78
35 36 38 40 41 43 44 45 45 47 49 51 52 49 47 49 52 55 59 61 62 63 64 66 69 71 71 70 70 67 68 71 70 70 69 70 70 70 71 72 74 77 79
32 31 32 35 38 40 40 41 43 43 43 45 46 49 52 55 57 60 63 65 63 63 67 71 73 72 71 74 69 68 71 73 69 70 70 70 69 70 71 72 75 77 80
35 35 37 36 35 36 38 42 46 48 47 49 53 57 59 59 59 59 63 63 66 69 71 75 72 73 74 67 67 70 70 67 69 70 70 70 71 71 72 74 76 78 75
39 38 36 37 38 39 41 41 42 44 46 48 49 52 54 56 58 60 64 68 70 71 71 72 73 69 66 69 71 66 67 69 70 69 71 71 72 73 73 77 78 74 67
40 41 41 43 44 44 44 45 47 49 51 52 54 57 59 61 63 65 67 69 70 71 70 66 66 67 70 67 66 67 68 68 67 68 70 71 72 74 76 78 74 67 62
40 40 41 43 46 47 47 48 49 52 55 57 59 60 58 58 60 61 61 61 61 61 63 67 68 66 66 67 68 66 65 67 69 71 72 73 74 75 76 74 67 64 61
38 39 40 40 41 42 43 45 47 49 51 52 54 54 54 55 56 58 60 63 63 64 64 64 63 63 64 64 66 69 70 71 71 72 73 73 74 73 71 64 62 61 60
42 42 42 43 43 44 45 47 48 49 51 52 54 55 55 58 58 59 58 58 58 58 58 59 58 60 62 64 67 67 67 67 68 70 72 72 72 67 61 61 59 58 56
45 45 46 47 46 47 48 50 51 52 53 53 53 53 53 54 55 56 56 57 57 57 57 56 57 59 62 65 65 64 64 66 68 70 71 69 63 59 59 58 56 54 51
53 52 52 54 55 54 55 56 57 58 59 58 58 58 58 58 59 59 59 59 59 59 59 60 61 63 64 65 64 63 64 66 68 67 64 60 59 58 57 56 53 50 49
55 55 55 56 56 56 56 59 60 60 60 60 59 57 57 57 56 59 61 62 62 61 62 63 63 64 65 64 64 65 66 66 64 60 58 59 59 57 55 53 50 48 44
58 57 56 54 52 53 54 55 55 57 59 60 59 57 57 57 55 55 56 56 58 60 62 62 64 65 65 65 65 65 63 60 57 57 57 57 56 54 51 50 48 44 36
Wind_Direction
245 247 249 250 252 254 256 258 260 262 264 267 270 274 275 277 280 282 285 286 288 290 292 293 293 294 296 299 300 302 301 304 305 305 306 305 302 302 301 301 300 303 305
245 246 249 251 253 255 256 258 260 263 265 268 271 273 275 277 280 282 284 285 288 289 290 291 292 294 297 297 301 302 304 306 304 305 305 302 301 300 300 299 301 301 304
247 247 248 250 252 255 257 259 261 264 265 268 271 274 276 278 281 281 283 285 286 287 288 289 294 296 296 298 301 302 304 305 304 306 304 302 301 300 301 300 300 302 303
252 253 254 254 255 256 258 260 263 265 268 270 272 274 276 277 279 280 281 282 283 287 289 294 294 299 297 298 300 302 304 304 303 304 303 302 301 299 299 301 302 302 304
255 256 257 258 259 260 262 264 265 267 268 269 271 272 275 276 277 276 280 280 284 287 293 294 297 294 294 297 300 302 304 301 301 304 305 302 300 300 301 301 301 304 304
254 254 257 258 261 262 263 265 267 268 270 270 272 271 272 274 277 280 284 285 287 289 290 291 292 292 295 297 298 303 302 300 301 302 302 305 308 305 303 304 303 304 306
253 254 254 256 258 260 262 263 265 265 265 266 269 271 272 275 276 278 281 284 287 287 283 287 289 291 294 297 299 302 300 299 302 303 303 304 305 305 304 305 307 308 308
255 256 257 256 257 259 260 262 263 264 266 267 266 269 272 274 274 276 278 282 280 282 283 286 285 289 296 297 301 302 298 297 301 304 305 306 307 307 307 307 307 308 308
255 256 256 256 256 256 258 260 261 261 262 263 265 267 269 271 273 273 274 274 274 280 281 281 286 290 292 298 300 298 297 298 300 303 305 305 303 304 304 305 306 306 307
255 254 255 256 256 256 257 258 260 261 263 265 266 267 269 269 270 268 269 272 273 277 279 282 286 290 296 296 299 299 297 298 298 299 300 299 300 302 303 304 304 305 306
257 255 255 255 255 256 257 258 259 261 262 263 265 266 267 267 267 264 267 271 270 274 280 284 286 293 293 296 300 299 297 295 295 296 296 298 299 301 302 303 304 305 306
255 255 255 256 257 257 258 258 259 260 262 262 262 261 260 261 264 263 266 263 272 278 280 283 287 289 292 295 298 297 297 296 295 294 295 296 297 298 299 301 303 303 305
254 254 255 254 255 256 256 257 257 257 258 258 258 258 257 260 258 261 263 270 273 276 280 283 285 290 291 295 298 297 295 295 296 295 295 295 295 297 299 300 301 303 305
253 252 252 252 252 252 252 254 254 253 252 248 249 250 256 262 258 260 266 269 272 274 280 282 285 286 290 294 297 294 296 298 297 297 298 298 298 299 300 301 302 304 306
253 251 249 249 251 250 251 252 252 250 252 254 255 255 253 256 259 263 265 268 274 277 278 281 284 286 289 293 295 295 297 299 298 298 299 300 300 299 300 302 304 305 307
248 249 248 251 250 250 250 251 253 254 253 253 254 257 260 264 264 267 270 272 274 273 277 280 284 286 289 292 293 294 297 298 297 299 301 301 300 300 301 303 305 307 308
244 244 242 243 245 247 248 250 252 252 254 256 257 261 263 266 268 267 269 270 269 273 278 282 283 286 289 290 293 296 296 295 298 300 300 300 300 301 303 305 307 309 309
243 244 246 246 247 244 244 244 246 248 250 250 252 256 259 261 263 267 269 271 274 277 279 283 285 288 290 292 294 294 294 297 299 299 299 300 301 303 306 308 309 310 309
248 250 251 252 252 252 253 254 255 255 254 256 260 264 266 267 268 270 272 274 276 279 283 284 285 288 291 293 294 295 296 298 298 299 301 302 303 305 308 308 309 309 309
253 253 253 253 254 255 256 258 259 260 262 263 265 267 270 271 272 273 275 277 279 281 283 285 288 291 292 293 294 296 295 297 298 299 303 304 305 306 308 308 307 309 309
255 255 256 258 258 258 259 261 262 263 264 266 268 270 271 272 273 275 277 280 283 285 287 288 290 292 294 294 295 295 295 296 298 300 303 304 306 306 306 305 307 309 310
251 254 256 257 259 261 262 262 264 265 266 268 270 272 273 274 276 277 279 281 283 286 287 289 291 293 296 299 298 298 297 299 300 302 304 305 305 306 304 305 308 309 307
251 252 255 258 260 263 264 265 266 268 270 271 272 273 274 274 275 277 279 281 282 284 287 289 292 295 298 300 300 301 301 301 302 304 305 305 305 304 305 307 308 306 305
253 255 257 260 263 266 268 270 272 273 275 276 277 277 277 276 276 277 278 279 282 285 287 290 293 296 298 300 302 302 302 302 304 304 304 305 305 306 307 308 307 305 305
253 255 257 259 262 266 268 268 269 272 275 277 279 280 279 279 279 278 277 278 280 283 286 288 292 295 296 299 301 302 302 305 304 304 305 305 306 308 309 307 307 305 305
253 257 261 263 265 266 268 269 271 271 273 276 279 280 279 280 280 280 281 281 282 282 284 288 290 292 295 298 300 302 304 303 304 305 305 306 307 307 308 306 306 306 302